Location: Rounton
(54.4000°N, 1.3500°W)
Time: 01:20:27
(UTC+00:00)

Explorer 7 - Pass Details

Date: 08 December 2021
Orbit: 483 x 674 km, 50.3° (Epoch: 18 January)

Event Time Altitude Azimuth Distance (km) Brightness Sun altitude
Exits shadow 05:32:20 28° 201° (SSW) 1,094 8.2 -21.9°
Maximum altitude 05:33:44 36° 162° (SSE) 912 8.1 -21.7°
Drops below altitude 10° 05:37:30 10° 96° (E) 1,808 10.6 -21.1°
Sets 05:39:47 0° 87° (E) 2,669 11.7 -20.8°
